CW1621 Weather Reports


Display with metric or nautical units.
time (UTC)temp
F
wind
direction
speed
MPH
gust
MPH
rain 1hr
in
rain 24hr
in
rain mn
in
humidity
%
barometer
mb
20260905193603 64 56 6.0 12.0 0.00 0.00 0.00 59 1018.8
20260905193103 64 71 2.0 10.0 0.00 0.00 0.00 61 1018.9
20260905192602 63 88 4.0 12.0 0.00 0.00 0.00 58 1019.0
20260905192103 63 89 7.0 10.0 0.00 0.00 0.00 60 1019.0
20260905191603 63 67 7.0 10.0 0.00 0.00 0.00 60 1018.9
20260905191103 63 94 4.0 10.0 0.00 0.00 0.00 60 1019.2
20260905190603 63 64 6.0 12.0 0.00 0.00 0.00 60 1019.3
20260905190103 64 53 7.0 10.0 0.00 0.00 0.00 59 1019.2
20260905185602 65 58 3.0 7.0 0.00 0.00 0.00 61 1019.2
20260905185103 63 34 2.0 7.0 0.00 0.00 0.00 63 1019.5
20260905184603 63 45 3.0 9.0 0.00 0.00 0.00 61 1019.6
20260905184103 63 25 3.0 6.0 0.00 0.00 0.00 63 1019.6
20260905183603 62 15 3.0 7.0 0.00 0.00 0.00 65 1019.7
20260905183103 62 85 6.0 10.0 0.00 0.00 0.00 64 1019.7
20260905182103 61 59 2.0 7.0 0.00 0.00 0.00 65 1019.9
20260905181603 61 102 2.0 9.0 0.00 0.00 0.00 64 1020.1
20260905181102 62 89 4.0 10.0 0.00 0.00 0.00 65 1019.8
20260905180603 61 95 4.0 10.0 0.00 0.00 0.00 68 1019.9
20260905180103 60 75 1.0 6.0 0.00 0.00 0.00 69 1020.1
20260905175603 59 131 3.0 6.0 0.00 0.00 0.00 67 1020.2
20260905175103 59 96 3.0 6.0 0.00 0.00 0.00 66 1020.3
20260905174603 59 92 5.0 6.0 0.00 0.00 0.00 71 1020.2
20260905174103 59 43 5.0 9.0 0.00 0.00 0.00 71 1020.2
20260905173103 59 92 2.0 7.0 0.00 0.00 0.00 69 1020.2
20260905172603 59 54 3.0 6.0 0.00 0.00 0.00 69 1020.3
20260905172103 58 71 6.0 7.0 0.00 0.00 0.00 71 1020.5
20260905171603 58 90 2.0 9.0 0.00 0.00 0.00 71 1020.4
20260905170602 59 86 5.0 8.0 0.00 0.00 0.00 69 1019.6
20260905165602 57 55 2.0 6.0 0.00 0.00 0.00 74 1019.8
20260905165103 57 72 3.0 6.0 0.00 0.00 0.00 74 1019.9
20260905164103 56 78 4.0 6.0 0.00 0.00 0.00 76 1020.1
20260905163603 56 69 3.0 5.0 0.00 0.00 0.00 79 1020.1
20260905163103 55 73 3.0 6.0 0.00 0.00 0.00 79 1020.1
20260905162602 55 68 3.0 5.0 0.00 0.00 0.00 79 1020.1
20260905161603 55 73 3.0 5.0 0.00 0.00 0.00 79 1020.2
20260905161103 55 71 3.0 5.0 0.00 0.00 0.00 78 1020.0
20260905160603 55 62 3.0 5.0 0.00 0.00 0.00 80 1019.8
20260905155103 55 78 4.0 6.0 0.00 0.00 0.00 80 1019.7
20260905154602 55 80 5.0 6.0 0.00 0.00 0.00 79 1019.7
20260905154102 55 75 3.0 3.0 0.00 0.00 0.00 78 1019.7
20260905153603 55 80 3.0 3.0 0.00 0.00 0.00 78 1019.8
20260905152103 54 91 3.0 5.0 0.00 0.00 0.00 80 1020.1
20260905151603 54 92 3.0 3.0 0.00 0.00 0.00 80 1020.1
20260905151102 54 95 3.0 3.0 0.00 0.00 0.00 78 1020.1
20260905150603 53 160 2.0 3.0 0.00 0.00 0.00 78 1020.0
20260905145602 53 160 2.0 3.0 0.00 0.00 0.00 80 1020.1
20260905145103 54 160 2.0 3.0 0.00 0.00 0.00 81 1019.9
20260905144603 53 216 1.0 3.0 0.00 0.00 0.00 82 1019.8
20260905144102 52 209 1.0 2.0 0.00 0.00 0.00 85 1020.0
20260905143603 51 209 1.0 2.0 0.00 0.00 0.00 85 1020.1
20260905143102 50 209 1.0 2.0 0.00 0.00 0.00 87 1020.3
20260905142603 49 209 1.0 2.0 0.00 0.00 0.00 85 1020.3
20260905141602 47 209 1.0 2.0 0.00 0.00 0.00 87 1020.7
20260905140603 44 209 2.0 3.0 0.00 0.00 0.00 87 1020.7
20260905140103 43 209 2.0 3.0 0.00 0.00 0.00 88 1020.6
20260905135603 43 209 2.0 3.0 0.00 0.00 0.00 84 1020.7
20260905135103 44 209 2.0 3.0 0.00 0.00 0.00 85 1020.6
20260905134603 44 209 2.0 2.0 0.00 0.00 0.00 86 1020.5
20260905134103 44 209 2.0 3.0 0.00 0.00 0.00 85 1020.5
20260905133603 44 209 2.0 3.0 0.00 0.00 0.00 84 1020.4
20260905133103 44 209 3.0 3.0 0.00 0.00 0.00 85 1020.4
20260905132603 44 209 2.0 3.0 0.00 0.00 0.00 86 1020.3
20260905132102 44 209 1.0 2.0 0.00 0.00 0.00 86 1020.2
20260905131103 43 209 2.0 3.0 0.00 0.00 0.00 88 1020.1
20260905130603 42 209 2.0 3.0 0.00 0.00 0.00 89 1020.2
20260905125603 42 209 2.0 3.0 0.00 0.00 0.00 87 1020.1
20260905125103 42 208 2.0 3.0 0.00 0.00 0.00 87 1020.1
20260905124605 42 205 3.0 3.0 0.00 0.00 0.00 88 1020.0
20260905124102 42 205 2.0 3.0 0.00 0.00 0.00 89 1020.0
20260905123603 41 205 3.0 3.0 0.00 0.00 0.00 88 1020.0
20260905123103 41 206 2.0 3.0 0.00 0.00 0.00 88 1020.0
20260905122603 41 206 3.0 5.0 0.00 0.00 0.00 89 1020.0
20260905122102 40 206 5.0 5.0 0.00 0.00 0.00 90 1020.1
20260905121603 40 213 3.0 5.0 0.00 0.00 0.00 89 1020.1
20260905121103 41 144 4.0 5.0 0.00 0.00 0.00 87 1019.9
20260905120603 42 144 2.0 3.0 0.00 0.00 0.00 85 1019.6
20260905115603 43 144 2.0 3.0 0.00 0.00 0.00 87 1019.6
20260905115103 43 144 2.0 2.0 0.00 0.00 0.00 88 1019.6
20260905114603 43 144 2.0 3.0 0.00 0.00 0.00 89 1019.6
20260905114103 42 144 3.0 3.0 0.00 0.00 0.00 89 1019.6
20260905113603 41 144 3.0 5.0 0.00 0.00 0.00 90 1019.9
20260905113103 40 144 3.0 3.0 0.00 0.00 0.00 90 1019.8
20260905112603 40 138 3.0 3.0 0.00 0.00 0.00 88 1019.8
20260905112103 41 134 0.0 3.0 0.00 0.00 0.00 86 1019.7
20260905111603 42 85 0.0 0.0 0.00 0.00 0.00 84 1019.5
20260905110603 44 74 0.0 0.0 0.00 0.00 0.00 86 1019.2
20260905105603 44 74 0.0 0.0 0.00 0.00 0.00 85 1018.9
20260905105103 45 74 0.0 0.0 0.00 0.00 0.00 85 1018.8
20260905104603 45 74 0.0 0.0 0.00 0.00 0.00 86 1018.8
20260905104102 44 74 0.0 0.0 0.00 0.00 0.00 85 1018.9
20260905103603 45 74 0.0 0.0 0.00 0.00 0.00 85 1018.7
20260905103103 45 74 0.0 0.0 0.00 0.00 0.00 85 1018.7
20260905102603 45 74 0.0 0.0 0.00 0.00 0.00 85 1018.7
20260905101603 44 74 0.0 2.0 0.00 0.00 0.00 88 1018.6
20260905101103 44 74 2.0 3.0 0.00 0.00 0.00 87 1018.8
20260905100602 44 73 4.0 5.0 0.00 0.00 0.00 85 1019.0
20260905095603 46 244 0.0 0.0 0.00 0.00 0.00 82 1018.6
20260905094603 47 244 0.0 1.0 0.00 0.00 0.00 82 1018.3
20260905094103 48 244 1.0 2.0 0.00 0.00 0.00 80 1018.3
20260905093103 48 244 1.0 2.0 0.00 0.00 0.00 84 1018.4
20260905092602 47 244 0.0 0.0 0.00 0.00 0.00 85 1018.5
20260905092103 46 244 0.0 1.0 0.00 0.00 0.00 86 1018.7
20260905091603 45 244 0.0 2.0 0.00 0.00 0.00 88 1018.6
20260905091103 45 244 2.0 3.0 0.00 0.00 0.00 89 1018.7
20260905090603 44 244 0.0 0.0 0.00 0.00 0.00 88 1018.8
20260905085603 44 244 3.0 5.0 0.00 0.00 0.00 85 1018.8
20260905085103 44 236 5.0 6.0 0.00 0.00 0.00 87 1018.8
20260905084603 44 236 5.0 5.0 0.00 0.00 0.00 85 1018.8
20260905084102 44 236 5.0 5.0 0.00 0.00 0.00 86 1018.8
20260905083603 44 236 3.0 5.0 0.00 0.00 0.00 84 1018.9
20260905083103 45 236 5.0 5.0 0.00 0.00 0.00 83 1018.9
20260905082603 46 240 3.0 3.0 0.00 0.00 0.00 83 1018.6
20260905082103 46 263 3.0 3.0 0.00 0.00 0.00 83 1018.6
20260905081603 46 263 2.0 3.0 0.00 0.00 0.00 82 1018.6
20260905081103 47 263 3.0 3.0 0.00 0.00 0.00 81 1018.7
20260905080603 47 263 3.0 3.0 0.00 0.00 0.00 82 1018.7
20260905080103 46 263 3.0 3.0 0.00 0.00 0.00 85 1018.9
20260905075603 45 263 3.0 5.0 0.00 0.00 0.00 85 1018.9
20260905074103 44 205 2.0 3.0 0.00 0.00 0.00 86 1019.3
20260905073602 44 205 2.0 3.0 0.00 0.00 0.00 86 1019.4
20260905073103 44 204 2.0 3.0 0.00 0.00 0.00 85 1019.4
20260905072603 44 196 3.0 5.0 0.00 0.00 0.00 85 1019.5
20260905072103 45 138 0.0 0.0 0.00 0.00 0.00 83 1019.1
20260905071603 46 127 0.0 0.0 0.00 0.01 0.00 83 1018.9
20260905071104 46 126 0.0 0.0 0.00 0.01 0.00 84 1018.8
20260905070603 46 126 0.0 1.0 0.00 0.01 0.00 84 1018.9
20260905065603 46 126 3.0 3.0 0.00 0.01 0.01 83 1018.9
20260905065103 46 92 0.0 3.0 0.00 0.01 0.01 82 1018.9
20260905064603 47 86 0.0 0.0 0.00 0.02 0.01 82 1018.6
20260905064103 47 86 0.0 0.0 0.00 0.02 0.01 82 1018.6
20260905063603 47 86 0.0 0.0 0.00 0.03 0.01 82 1018.5
20260905063103 46 86 0.0 0.0 0.00 0.04 0.01 83 1018.7
20260905062603 46 86 0.0 0.0 0.00 0.05 0.01 83 1018.7
20260905062103 46 51 0.0 0.0 0.00 0.06 0.01 83 1018.7
20260905061103 47 51 0.0 0.0 0.00 0.07 0.01 80 1018.5
20260905055603 48 51 0.0 0.0 0.00 0.10 0.01 79 1018.1
20260905055103 48 51 0.0 0.0 0.00 0.11 0.01 79 1018.0
20260905054603 48 51 0.0 0.0 0.00 0.12 0.01 80 1018.0
20260905054103 48 51 0.0 0.0 0.00 0.12 0.01 80 1018.1
20260905053103 48 51 0.0 0.0 0.00 0.13 0.01 80 1018.2
20260905052603 47 51 0.0 2.0 0.00 0.14 0.01 81 1018.4
20260905052103 47 51 2.0 3.0 0.00 0.14 0.01 80 1018.3
20260905051603 49 51 1.0 2.0 0.00 0.14 0.01 77 1018.2
20260905051103 51 51 0.0 0.0 0.00 0.14 0.01 75 1018.0
20260905050103 51 51 2.0 3.0 0.00 0.15 0.01 75 1018.2
20260905045103 49 51 0.0 0.0 0.00 0.16 0.01 77 1018.6
20260905044603 49 51 0.0 0.0 0.00 0.17 0.01 77 1018.7
20260905043103 51 51 0.0 0.0 0.00 0.18 0.01 74 1018.5
20260905042603 51 51 0.0 0.0 0.00 0.18 0.01 74 1018.6
20260905042103 52 51 1.0 2.0 0.00 0.18 0.01 73 1018.6
20260905041602 52 51 2.0 3.0 0.00 0.18 0.01 72 1018.6
20260905040603 53 51 2.0 3.0 0.00 0.20 0.01 71 1018.6
20260905035603 54 51 5.0 6.0 0.00 0.21 0.01 68 1018.3
20260905034603 55 77 3.0 5.0 0.00 0.22 0.01 67 1018.2
20260905034103 55 76 5.0 5.0 0.00 0.22 0.01 67 1018.3
20260905033603 54 68 3.0 3.0 0.00 0.22 0.01 68 1018.3
20260905033103 55 65 2.0 3.0 0.00 0.23 0.01 68 1018.3
20260905032603 55 65 3.0 3.0 0.00 0.24 0.01 68 1018.3
20260905032103 55 65 2.0 3.0 0.00 0.24 0.01 69 1018.2
20260905031603 54 65 3.0 3.0 0.00 0.25 0.01 69 1018.1
20260905031103 55 65 3.0 3.0 0.00 0.25 0.01 71 1018.2
20260905030603 55 65 2.0 3.0 0.00 0.25 0.01 69 1018.5
20260905025603 55 63 2.0 3.0 0.00 0.26 0.01 70 1018.5
20260905024603 56 58 3.0 5.0 0.00 0.27 0.01 69 1018.5
20260905023603 56 78 3.0 7.0 0.00 0.27 0.01 68 1018.4
20260905023103 56 62 4.0 7.0 0.00 0.28 0.01 68 1018.3
20260905022603 56 47 3.0 7.0 0.00 0.28 0.01 69 1018.3
20260905022103 57 69 1.0 3.0 0.00 0.28 0.01 67 1018.0
20260905021604 57 69 0.0 3.0 0.00 0.28 0.01 67 1017.9
20260905021102 57 69 0.0 3.0 0.00 0.28 0.01 67 1018.1
20260905020603 57 69 1.0 3.0 0.00 0.28 0.01 67 1018.4
20260905015603 57 69 2.0 3.0 0.00 0.29 0.01 65 1018.1
20260905015103 58 71 2.0 3.0 0.00 0.29 0.01 64 1018.0
20260905014603 58 67 2.0 3.0 0.00 0.29 0.01 63 1018.0
20260905013604 59 72 3.0 5.0 0.00 0.30 0.01 62 1018.0
20260905013103 59 45 3.0 5.0 0.00 0.30 0.01 62 1018.0
20260905012103 58 47 2.0 5.0 0.00 0.30 0.01 61 1018.1
20260905011603 59 52 4.0 9.0 0.00 0.30 0.01 60 1018.0
20260905011103 59 61 5.0 9.0 0.00 0.30 0.01 59 1017.9
20260905010603 59 72 9.0 12.0 0.00 0.31 0.01 58 1017.7
20260905005603 59 71 7.0 12.0 0.00 0.31 0.01 59 1017.6
20260905005103 59 73 7.0 10.0 0.00 0.31 0.01 59 1017.6
20260905004604 59 75 7.0 10.0 0.00 0.31 0.01 60 1017.7
20260905003603 59 71 8.0 12.0 0.00 0.31 0.01 60 1017.7
20260905002603 59 57 7.0 10.0 0.00 0.31 0.01 61 1017.8
20260905002103 59 74 5.0 12.0 0.00 0.31 0.01 58 1017.8
20260905001602 60 63 8.0 12.0 0.00 0.31 0.01 59 1017.5
20260905001103 60 79 7.0 12.0 0.00 0.31 0.01 58 1017.4
20260905000103 62 54 5.0 8.0 0.00 0.31 0.01 57 1017.1
20260904235603 62 329 3.0 6.0 0.00 0.31 0.01 58 1017.1
20260904235103 62 332 3.0 10.0 0.00 0.31 0.01 59 1017.1
20260904234603 61 18 5.0 10.0 0.00 0.31 0.01 61 1017.3
20260904234103 60 32 2.0 7.0 0.00 0.31 0.01 61 1017.3
20260904233603 60 31 4.0 9.0 0.00 0.31 0.01 62 1017.3
20260904233103 60 28 8.0 14.0 0.00 0.31 0.01 60 1017.3
20260904232103 59 33 4.0 7.0 0.00 0.31 0.01 62 1017.6
20260904231603 59 42 3.0 9.0 0.00 0.31 0.01 63 1017.6
20260904231102 60 73 2.0 8.0 0.00 0.31 0.01 61 1017.3
20260904230604 61 70 4.0 7.0 0.00 0.31 0.01 59 1017.0
20260904225603 60 60 4.0 6.0 0.00 0.31 0.01 61 1017.3
20260904225103 60 40 2.0 6.0 0.00 0.31 0.01 65 1017.3
20260904224603 59 59 2.0 6.0 0.00 0.31 0.01 62 1017.4
20260904224103 59 58 1.0 3.0 0.00 0.31 0.01 64 1017.3
20260904223602 59 67 1.0 9.0 0.00 0.31 0.01 62 1017.4
20260904223103 59 81 5.0 8.0 0.00 0.31 0.01 64 1017.4
20260904222602 59 44 3.0 7.0 0.00 0.31 0.01 64 1017.4
20260904222103 59 40 3.0 9.0 0.00 0.31 0.01 67 1017.3
20260904221603 59 27 6.0 12.0 0.00 0.31 0.01 65 1017.4
20260904221103 59 26 5.0 12.0 0.00 0.31 0.01 65 1017.4
20260904220603 59 13 5.0 7.0 0.00 0.31 0.01 68 1017.2
20260904215603 58 34 5.0 12.0 0.00 0.31 0.01 69 1017.5
20260904215103 58 32 6.0 13.0 0.00 0.31 0.01 68 1017.6
20260904214603 58 62 5.0 10.0 0.00 0.31 0.01 67 1017.6
20260904214103 58 55 4.0 10.0 0.00 0.31 0.01 69 1017.6
20260904213603 58 19 5.0 9.0 0.00 0.31 0.01 69 1017.7
20260904213102 57 19 6.0 12.0 0.00 0.31 0.01 71 1017.5
20260904212604 57 31 9.0 12.0 0.00 0.31 0.01 71 1017.5
20260904212103 57 39 3.0 8.0 0.00 0.31 0.01 71 1017.5
20260904211603 58 25 5.0 7.0 0.00 0.31 0.01 69 1017.5
20260904210603 57 120 2.0 3.0 0.00 0.31 0.01 70 1017.6
20260904205603 57 68 2.0 6.0 0.00 0.31 0.01 68 1017.5
20260904205103 57 281 2.0 3.0 0.00 0.31 0.01 70 1017.4
20260904204603 58 300 2.0 5.0 0.00 0.31 0.01 71 1017.5
20260904204103 58 229 2.0 3.0 0.00 0.31 0.01 71 1017.5
20260904203603 57 101 0.0 2.0 0.00 0.31 0.01 68 1017.6
20260904203103 57 101 4.0 13.0 0.00 0.31 0.01 65 1017.5
20260904202603 57 125 3.0 6.0 0.00 0.31 0.01 67 1017.6
20260904202103 57 84 3.0 5.0 0.00 0.31 0.01 66 1017.5
20260904201604 56 93 6.0 9.0 0.00 0.31 0.01 67 1017.7
20260904201103 57 121 6.0 9.0 0.00 0.31 0.01 67 1017.5
20260904200602 57 112 5.0 12.0 0.00 0.31 0.01 69 1017.6
20260904195604 57 143 3.0 12.0 0.00 0.31 0.01 69 1017.7
20260904194603 57 120 3.0 5.0 0.00 0.31 0.01 70 1017.7
20260904194103 57 169 3.0 3.0 0.00 0.31 0.01 69 1017.6